GW1598 Weather Reports


time (UTC)temp
F
wind
direction
speed
knots
gust
knots
rain 1hr
in
rain 24hr
in
rain mn
in
humidity
%
barometer
mb
20260906131525 71 323 3.5 3.5 0.00 0.00 0.00 97 1009.4
20260906131110 71 323 3.5 3.5 0.00 0.00 0.00 97 1009.4
20260906125141 71 304 0.0 2.6 0.00 0.00 0.00 97 1009.1
20260906124724 71 304 0.0 2.6 0.00 0.00 0.00 97 1009.1
20260906124252 71 272 0.0 3.5 0.00 0.00 0.00 98 1009.1
20260906123820 71 272 0.0 3.5 0.00 0.00 0.00 98 1009.1
20260906123348 71 272 0.0 3.5 0.00 0.00 0.00 98 1009.1
20260906122916 70 264 1.7 3.5 0.00 0.00 0.00 99 1009.1
20260906122500 70 264 1.7 3.5 0.00 0.00 0.00 99 1009.1
20260906121610 70 264 1.7 3.5 0.00 0.00 0.00 99 1009.1
20260906120650 70 289 0.9 4.3 0.00 0.00 0.00 99 1009.1
20260906120220 70 289 0.9 4.3 0.00 0.00 0.00 99 1009.1
20260906115749 70 258 0.9 0.9 0.00 0.00 0.00 100 1008.8
20260906114843 70 258 0.9 0.9 0.00 0.00 0.00 100 1008.8
20260906114428 70 258 0.0 3.5 0.00 0.00 0.00 100 1008.4
20260906113511 70 258 0.0 3.5 0.00 0.00 0.00 100 1008.4
20260906112552 70 241 0.0 0.0 0.00 0.00 0.00 100 1008.4
20260906111635 70 241 0.0 0.0 0.00 0.00 0.00 100 1008.4
20260906111116 70 241 0.0 2.6 0.00 0.00 0.00 100 1008.1
20260906110700 70 241 0.0 2.6 0.00 0.00 0.00 100 1008.1
20260906110230 70 241 0.0 2.6 0.00 0.00 0.00 100 1008.1
20260906105710 70 240 2.6 3.5 0.00 0.00 0.00 100 1007.7
20260906104753 70 240 2.6 3.5 0.00 0.00 0.00 100 1007.7
20260906104337 70 254 1.7 3.5 0.00 0.00 0.00 100 1007.7
20260906103920 70 254 1.7 3.5 0.00 0.00 0.00 100 1007.7
20260906103503 70 254 1.7 3.5 0.00 0.00 0.00 100 1007.7
20260906102545 70 232 0.0 0.0 0.00 0.00 0.00 100 1007.7
20260906102115 70 232 0.0 0.0 0.00 0.00 0.00 100 1007.7
20260906101659 70 232 0.0 0.0 0.00 0.00 0.00 100 1007.7
20260906101125 70 232 0.0 0.0 0.00 0.00 0.00 100 1007.7
20260906100223 70 232 0.0 0.0 0.00 0.00 0.00 100 1007.7
20260906095217 70 232 0.0 3.5 0.00 0.00 0.00 100 1007.7
20260906094759 70 232 0.0 3.5 0.00 0.00 0.00 100 1007.7
20260906094315 70 232 0.0 0.0 0.00 0.00 0.00 100 1007.7
20260906093842 70 232 0.0 0.0 0.00 0.00 0.00 100 1007.7
20260906093426 70 232 0.0 0.0 0.00 0.00 0.00 100 1007.7
20260906093010 69 232 0.0 0.0 0.00 0.00 0.00 100 1007.7
20260906092553 69 232 0.0 0.0 0.00 0.00 0.00 100 1007.7
20260906092123 69 232 0.0 0.0 0.00 0.00 0.00 100 1007.7
20260906091652 69 232 0.0 0.0 0.00 0.00 0.00 100 1007.7
20260906091236 69 232 0.0 0.0 0.00 0.00 0.00 100 1007.7
20260906090804 69 232 0.0 0.0 0.00 0.00 0.00 100 1007.7
20260906090315 69 232 0.0 0.0 0.00 0.00 0.00 100 1007.7
20260906085427 68 232 0.0 0.0 0.00 0.00 0.00 100 1007.7
20260906085010 68 232 0.0 0.0 0.00 0.00 0.00 100 1007.7
20260906084539 68 232 0.0 0.0 0.00 0.00 0.00 100 1007.7
20260906084108 68 232 0.0 0.0 0.00 0.00 0.00 100 1007.7
20260906083635 68 232 0.0 0.0 0.00 0.00 0.00 100 1007.7
20260906083219 68 232 0.0 0.0 0.00 0.00 0.00 100 1007.7
20260906082642 68 232 0.0 0.0 0.00 0.00 0.00 100 1007.4
20260906082211 68 232 0.0 0.0 0.00 0.00 0.00 100 1007.4
20260906081252 69 232 0.0 0.0 0.00 0.00 0.00 100 1007.4
20260906080821 69 232 0.0 0.0 0.00 0.00 0.00 100 1007.4
20260906080352 69 232 0.0 0.0 0.00 0.00 0.00 100 1007.4
20260906075935 69 232 0.0 0.0 0.00 0.00 0.00 100 1007.7
20260906075518 69 232 0.0 0.0 0.00 0.00 0.00 100 1007.7
20260906075046 69 232 0.0 0.0 0.00 0.00 0.00 100 1007.7
20260906074631 69 232 0.0 0.0 0.00 0.00 0.00 100 1007.7
20260906074109 69 232 0.0 0.0 0.00 0.00 0.00 100 1007.4
20260906073636 69 232 0.0 0.0 0.00 0.00 0.00 100 1007.4
20260906073221 69 232 0.0 0.0 0.00 0.00 0.00 100 1007.4
20260906072804 69 232 0.0 0.0 0.00 0.00 0.00 100 1007.4
20260906072331 69 232 0.0 0.0 0.00 0.00 0.00 100 1007.4
20260906071900 69 232 0.0 0.0 0.00 0.00 0.00 100 1007.4
20260906071444 69 232 0.0 0.0 0.00 0.00 0.00 100 1007.4
20260906070525 69 232 0.0 0.0 0.00 0.00 0.00 100 1007.4
20260906070056 69 232 0.0 0.0 0.00 0.00 0.00 100 1007.4
20260906065622 70 232 0.0 0.0 0.00 0.00 0.00 100 1007.7
20260906065206 70 232 0.0 0.0 0.00 0.00 0.00 100 1007.7
20260906064735 70 232 0.0 0.0 0.00 0.00 0.00 100 1007.7
20260906064301 70 232 0.0 0.0 0.00 0.00 0.00 100 1007.4
20260906063830 70 232 0.0 0.0 0.00 0.00 0.00 100 1007.4
20260906063412 70 232 0.0 0.0 0.00 0.00 0.00 100 1007.4
20260906062955 70 232 0.0 0.0 0.00 0.00 0.00 100 1007.4
20260906062540 70 232 0.0 0.0 0.00 0.00 0.00 100 1007.4
20260906062107 70 232 0.0 0.0 0.00 0.00 0.00 100 1007.4
20260906061635 70 232 0.0 0.0 0.00 0.00 0.00 100 1007.4
20260906061219 70 232 0.0 0.0 0.00 0.00 0.00 100 1007.7
20260906060801 70 232 0.0 0.0 0.00 0.00 0.00 100 1007.7
20260906060346 70 232 0.0 0.0 0.00 0.00 0.00 100 1007.7
20260906055929 70 232 0.0 0.0 0.00 0.00 0.00 100 1007.7
20260906055513 70 232 0.0 0.0 0.00 0.00 0.00 100 1007.7
20260906055059 70 232 0.0 0.0 0.00 0.00 0.00 100 1007.7
20260906054644 70 232 0.0 0.0 0.00 0.00 0.00 100 1007.7
20260906054157 70 232 0.0 0.0 0.00 0.00 0.00 99 1007.7
20260906053742 70 232 0.0 0.0 0.00 0.00 0.00 99 1007.7
20260906053312 70 232 0.0 0.0 0.00 0.00 0.00 99 1007.7
20260906052841 70 232 0.0 0.0 0.00 0.00 0.00 99 1007.4
20260906052410 70 232 0.0 0.0 0.00 0.00 0.00 99 1007.4
20260906051938 70 232 0.0 0.0 0.00 0.00 0.00 99 1007.4
20260906051507 71 232 0.0 0.0 0.00 0.00 0.00 99 1007.4
20260906051022 71 232 0.0 0.0 0.00 0.00 0.00 99 1007.4
20260906050607 71 232 0.0 0.0 0.00 0.00 0.00 99 1007.4
20260906050137 71 232 0.0 0.0 0.00 0.00 0.00 99 1007.4
20260906045719 71 232 0.0 0.0 0.00 0.00 0.00 99 1007.4
20260906045305 71 232 0.0 0.0 0.00 0.00 0.00 99 1007.4
20260906044847 71 232 0.0 0.0 0.00 0.00 0.00 99 1007.4
20260906044416 71 232 0.0 0.0 0.00 0.00 0.00 99 1007.4
20260906043514 71 232 0.0 0.0 0.00 0.00 0.00 99 1007.4
20260906043044 71 232 0.0 0.0 0.00 0.00 0.00 99 1007.4
20260906042613 71 232 0.0 0.0 0.00 0.00 0.00 99 1007.4
20260906042158 71 232 0.0 0.0 0.00 0.00 0.00 99 1007.4
20260906041136 71 232 0.0 0.0 0.00 0.00 0.00 99 1007.4
20260906040719 71 232 0.0 0.0 0.00 0.00 0.00 99 1007.4
20260906040302 71 232 0.0 0.0 0.00 0.00 0.00 99 1007.4
20260906035728 72 232 0.0 0.0 0.00 0.00 0.63 99 1007.4
20260906035311 72 232 0.0 0.0 0.00 0.00 0.63 99 1007.4
20260906034855 72 232 0.0 0.0 0.00 0.00 0.63 99 1007.4
20260906034440 72 277 0.0 3.5 0.00 0.00 0.63 99 1007.4
20260906033506 72 277 0.0 3.5 0.00 0.00 0.63 99 1007.4
20260906033048 72 227 0.0 0.0 0.00 0.00 0.63 99 1007.7
20260906032617 72 227 0.0 0.0 0.00 0.00 0.63 99 1007.7
20260906032146 72 227 0.0 0.0 0.00 0.00 0.63 99 1007.7
20260906031245 72 227 0.0 0.0 0.00 0.00 0.63 98 1007.7
20260906030340 72 227 0.0 0.0 0.00 0.00 0.63 98 1007.7
20260906025923 72 227 0.0 0.0 0.00 0.00 0.63 98 1007.7
20260906025450 72 227 0.0 0.0 0.00 0.00 0.63 98 1007.7
20260906025019 72 227 0.0 0.0 0.00 0.00 0.63 98 1007.7
20260906023641 72 227 0.0 0.0 0.00 0.00 0.63 98 1007.7
20260906023212 72 227 0.0 0.0 0.00 0.00 0.63 98 1007.7
20260906022740 73 227 0.0 0.0 0.00 0.00 0.63 98 1007.7
20260906022308 73 227 0.0 0.0 0.00 0.00 0.63 98 1007.7
20260906021422 73 227 0.0 0.0 0.00 0.00 0.63 98 1007.7
20260906020045 73 227 0.0 0.0 0.00 0.00 0.63 98 1007.4
20260906015614 73 227 0.0 0.0 0.00 0.00 0.63 98 1007.4
20260906015158 73 227 0.0 0.0 0.00 0.00 0.63 98 1007.4
20260906014726 73 227 0.0 0.0 0.00 0.00 0.63 98 1007.4
20260906014253 73 227 0.0 0.0 0.00 0.00 0.63 97 1007.4
20260906013837 73 227 0.0 0.0 0.00 0.00 0.63 97 1007.4
20260906012946 74 227 0.0 0.0 0.00 0.00 0.63 97 1006.7
20260906012515 74 227 0.0 0.0 0.00 0.00 0.63 97 1006.7
20260906012043 74 227 0.0 0.0 0.00 0.00 0.63 97 1006.7
20260906011627 74 227 0.0 0.0 0.00 0.00 0.63 97 1006.7
20260906011141 74 227 0.0 0.0 0.00 0.00 0.63 96 1006.7
20260906010707 74 227 0.0 0.0 0.00 0.00 0.63 96 1006.7
20260906010237 74 227 0.0 0.0 0.00 0.00 0.63 96 1006.7
20260906005716 75 227 0.0 0.0 0.00 0.00 0.63 96 1006.7
20260906005244 75 227 0.0 0.0 0.00 0.00 0.63 96 1006.7
20260906004813 75 227 0.0 0.0 0.00 0.00 0.63 96 1006.7
20260906004340 75 227 0.0 0.0 0.00 0.00 0.63 95 1006.7
20260906003923 75 227 0.0 0.0 0.00 0.00 0.63 95 1006.7
20260906003506 75 227 0.0 0.0 0.00 0.00 0.63 95 1006.7
20260906002602 76 227 0.0 0.0 0.00 0.00 0.63 94 1006.7
20260906002147 76 227 0.0 0.0 0.00 0.00 0.63 94 1006.7
20260906001729 76 227 0.0 0.0 0.00 0.00 0.63 94 1006.7
20260906001153 77 227 0.0 0.0 0.00 0.00 0.63 93 1006.7
20260906000737 77 227 0.0 0.0 0.00 0.00 0.63 93 1006.7
20260906000308 77 227 0.0 0.0 0.00 0.00 0.63 93 1006.7
20260905235848 77 227 0.0 0.0 0.00 0.00 0.63 91 1006.7
20260905234943 77 227 0.0 0.0 0.00 0.00 0.63 91 1006.7
20260905234526 78 227 0.0 0.0 0.00 0.00 0.63 91 1006.7
20260905234113 78 227 0.0 0.0 0.00 0.00 0.63 91 1006.7
20260905233657 78 227 0.0 0.0 0.00 0.00 0.63 91 1006.7
20260905233242 78 227 0.0 0.0 0.00 0.00 0.63 91 1006.7
20260905232654 79 227 0.0 0.0 0.00 0.00 0.63 87 1006.7
20260905232226 79 227 0.0 0.0 0.00 0.00 0.63 87 1006.7
20260905231756 79 227 0.0 0.0 0.00 0.00 0.63 87 1006.7
20260905231119 80 227 0.0 0.0 0.00 0.00 0.63 86 1006.7
20260905230219 80 227 0.0 0.0 0.00 0.00 0.63 86 1006.7
20260905225643 81 227 0.0 0.0 0.00 0.00 0.63 84 1006.7
20260905224742 81 227 0.0 0.0 0.00 0.00 0.63 84 1006.7
20260905224325 82 227 0.0 0.0 0.00 0.00 0.63 85 1006.7
20260905223906 82 227 0.0 0.0 0.00 0.00 0.63 85 1006.7
20260905223436 82 227 0.0 0.0 0.00 0.00 0.63 85 1006.7
20260905223021 82 227 0.0 0.0 0.00 0.00 0.63 86 1006.7
20260905222606 82 227 0.0 0.0 0.00 0.00 0.63 86 1006.7
20260905222151 82 227 0.0 0.0 0.00 0.00 0.63 86 1006.7
20260905221736 82 227 0.0 0.0 0.00 0.00 0.63 86 1006.7
20260905220730 82 227 0.0 0.0 0.00 0.00 0.63 85 1007.1
20260905215838 83 227 0.0 0.0 0.00 0.00 0.63 83 1006.7
20260905214951 83 227 0.0 0.0 0.00 0.00 0.63 83 1006.7
20260905214521 83 227 0.0 1.7 0.00 0.00 0.63 77 1006.7
20260905214105 83 227 0.0 1.7 0.00 0.00 0.63 77 1006.7
20260905213636 83 227 0.0 1.7 0.00 0.00 0.63 77 1006.7
20260905212252 84 240 0.9 5.2 0.00 0.00 0.63 72 1006.7
20260905211407 85 211 3.5 4.3 0.00 0.00 0.63 72 1006.4
20260905210950 85 211 3.5 4.3 0.00 0.00 0.63 72 1006.4
20260905210536 85 211 3.5 4.3 0.00 0.00 0.63 72 1006.4
20260905210105 85 211 3.5 4.3 0.00 0.00 0.63 72 1006.4
20260905205617 84 239 5.2 5.2 0.00 0.00 0.63 76 1006.7
20260905204719 84 239 5.2 5.2 0.00 0.00 0.63 76 1006.7
20260905204301 85 228 2.6 3.5 0.00 0.00 0.63 71 1006.7
20260905203845 85 228 2.6 3.5 0.00 0.00 0.63 71 1006.7
20260905203430 85 228 2.6 3.5 0.00 0.00 0.63 71 1006.7
20260905203015 84 28 0.0 0.0 0.00 0.00 0.63 75 1006.7
20260905202601 84 28 0.0 0.0 0.00 0.00 0.63 75 1006.7
20260905202147 84 28 0.0 0.0 0.00 0.00 0.63 75 1006.7
20260905201732 84 28 0.0 0.0 0.00 0.00 0.63 75 1006.7
20260905200257 83 327 0.0 2.6 0.00 0.00 0.63 74 1007.1
20260905195412 84 101 0.9 4.3 0.00 0.00 0.63 72 1007.4
20260905194955 84 101 0.9 4.3 0.00 0.00 0.63 72 1007.4
20260905194508 83 101 2.6 6.1 0.00 0.00 0.63 74 1007.4
20260905193605 83 101 2.6 6.1 0.00 0.00 0.63 74 1007.4
20260905193148 83 101 2.6 6.1 0.00 0.00 0.63 74 1007.4
20260905192613 83 82 2.6 3.5 0.00 0.00 0.63 78 1007.7
20260905192142 83 82 2.6 3.5 0.00 0.00 0.63 78 1007.7
20260905191726 83 82 2.6 3.5 0.00 0.00 0.63 78 1007.7
20260905191255 83 39 0.0 2.6 0.00 0.00 0.63 77 1007.7
20260905190840 83 39 0.0 2.6 0.00 0.00 0.63 77 1007.7
20260905190408 83 39 0.0 2.6 0.00 0.00 0.63 77 1007.7
20260905185938 82 13 2.6 3.5 0.00 0.00 0.63 78 1007.7
20260905185522 82 13 2.6 3.5 0.00 0.00 0.63 78 1007.7
20260905185051 82 13 2.6 3.5 0.00 0.00 0.63 78 1007.7
20260905184637 82 13 2.6 3.5 0.00 0.00 0.63 78 1007.7
20260905183632 82 86 2.6 6.1 0.00 0.00 0.63 79 1008.1
20260905183215 82 86 2.6 6.1 0.00 0.00 0.63 79 1008.1
20260905182652 81 27 0.0 6.1 0.00 0.00 0.63 79 1008.1
20260905182223 81 27 0.0 6.1 0.00 0.00 0.63 79 1008.1
20260905181805 81 27 0.0 6.1 0.00 0.00 0.63 79 1008.1
20260905180914 81 108 1.7 5.2 0.00 0.00 0.63 80 1008.1
20260905180013 81 96 0.0 7.0 0.00 0.00 0.63 79 1008.4
20260905175557 81 96 0.0 7.0 0.00 0.00 0.63 79 1008.4
20260905175143 81 96 0.0 7.0 0.00 0.00 0.63 79 1008.4
20260905174726 81 96 0.0 7.0 0.00 0.00 0.63 79 1008.4
20260905174257 80 143 0.9 4.3 0.00 0.00 0.63 82 1008.4
20260905173842 80 143 0.9 4.3 0.00 0.00 0.63 82 1008.4
20260905172955 79 82 2.6 6.1 0.00 0.00 0.63 83 1008.4
20260905172539 79 82 2.6 6.1 0.00 0.00 0.63 83 1008.4
20260905172109 79 82 2.6 6.1 0.00 0.00 0.63 83 1008.4
20260905171651 79 82 2.6 6.1 0.00 0.00 0.63 83 1008.4
20260905171238 79 89 6.1 7.8 0.00 0.00 0.63 83 1008.4
20260905170805 79 89 6.1 7.8 0.00 0.00 0.63 83 1008.4
20260905170335 79 89 6.1 7.8 0.00 0.00 0.63 83 1008.4
20260905165918 78 81 6.1 9.6 0.00 0.00 0.63 85 1008.4
20260905165501 78 81 6.1 9.6 0.00 0.00 0.63 85 1008.4
20260905165045 78 81 6.1 9.6 0.00 0.00 0.63 85 1008.4
20260905164629 78 81 6.1 9.6 0.00 0.00 0.63 85 1008.4
20260905162736 77 9 0.0 7.0 0.00 0.00 0.63 87 1009.4
20260905162306 77 9 0.0 7.0 0.00 0.00 0.63 87 1009.4
20260905161847 77 9 0.0 7.0 0.00 0.00 0.63 87 1009.4
20260905161432 75 355 0.0 2.6 0.00 0.00 0.63 94 1009.4
20260905161000 75 355 0.0 2.6 0.00 0.00 0.63 94 1009.4
20260905160546 75 355 0.0 2.6 0.00 0.00 0.63 94 1009.4
20260905160116 75 355 0.0 2.6 0.00 0.00 0.63 94 1009.4
20260905155541 74 259 0.0 0.0 0.00 0.00 0.63 97 1009.4
20260905154209 73 259 0.0 0.0 0.00 0.00 0.63 99 1009.1
20260905153736 73 259 0.0 0.0 0.00 0.00 0.63 99 1009.1
20260905153318 73 259 0.0 0.0 0.00 0.00 0.63 99 1009.1
20260905152901 73 250 0.9 3.5 0.00 0.00 0.63 100 1009.4
20260905152444 73 250 0.9 3.5 0.00 0.00 0.63 100 1009.4
20260905152027 73 250 0.9 3.5 0.00 0.00 0.63 100 1009.4
20260905151555 73 202 0.0 0.9 0.00 0.00 0.63 100 1008.4
20260905151140 73 202 0.0 0.9 0.00 0.00 0.63 100 1008.4
20260905150722 73 202 0.0 0.9 0.00 0.00 0.63 100 1008.4
20260905150305 73 202 0.0 0.9 0.00 0.00 0.63 100 1008.4
20260905145746 72 287 1.7 5.2 0.00 0.00 0.63 100 1008.1
20260905145328 72 287 1.7 5.2 0.00 0.00 0.63 100 1008.1
20260905144912 72 287 1.7 5.2 0.00 0.00 0.63 100 1008.1
20260905144455 72 182 0.9 1.7 0.00 0.00 0.63 100 1008.1
20260905144040 72 182 0.9 1.7 0.00 0.00 0.63 100 1008.1
20260905142719 72 82 5.2 5.2 0.00 0.00 0.63 100 1007.7
20260905142305 72 82 5.2 5.2 0.00 0.00 0.63 100 1007.7
20260905141844 72 82 5.2 5.2 0.00 0.00 0.63 100 1007.7
20260905141429 71 178 0.0 5.2 0.00 0.00 0.63 100 1008.8
20260905140527 71 178 0.0 5.2 0.00 0.00 0.63 100 1008.8
20260905140110 71 178 0.0 5.2 0.00 0.00 0.63 100 1008.8
20260905135652 71 103 0.9 4.3 0.00 0.00 0.63 100 1008.8
20260905135234 71 103 0.9 4.3 0.00 0.00 0.63 100 1008.8
20260905134802 71 103 0.9 4.3 0.00 0.00 0.63 100 1008.8
20260905134242 71 84 0.0 4.3 0.00 0.00 0.63 100 1008.8
20260905132919 70 138 0.0 0.0 0.00 0.00 0.63 100 1009.8
20260905132448 70 138 0.0 0.0 0.00 0.00 0.63 100 1009.8